Smithfield, NC

3:46 AM EDT on September 15, 2019 (GMT -0400)
Johnston County

Weather History for KJNX - August, 2019

Change the Weather History Date:

Sunday, August 25, 2019

  Actual Average Record
Temperature  
Mean Temperature 70 °F -  
Max Temperature 77 °F 87 °F 102 °F (1968)
Min Temperature 64 °F 63 °F 49 °F (1952)
Cooling Degree Days 6    
Growing Degree Days 20 (Base 50)    
Moisture  
Dew Point 64 °F    
Average Humidity 84    
Maximum Humidity 100    
Minimum Humidity 47    
Precipitation  
Precipitation 0.04 in - - ()
Sea Level Pressure  
Sea Level Pressure 30.10 in    
Wind  
Wind Speed 5 mph ()    
Max Wind Speed 14 mph    
Max Gust Speed 23 mph    
Visibility 9.7 miles    
Events      
Averages and records for this station are not official NWS values.
T = Trace of Precipitation, MM = Missing Value Source: Averaged Metar Reports

Daily Weather History Graph

Daily Weather History Graph

Search for Another Location

Airport or City:

Astronomy

Aug. 25, 2019 Rise Set
Actual Time 6:40 AM EDT 7:50 PM EDT
Civil Twilight 6:13 AM EDT 8:16 PM EDT
Nautical Twilight 5:42 AM EDT 8:48 PM EDT
Astronomical Twilight 5:09 AM EDT 9:20 PM EDT
Moon 1:19 AM EDT (8/25) 4:02 PM EDT (8/25)
Length of Visible Light 14h 03m
Length of Day
13h 10m
Waning Crescent, 29% of the Moon is Illuminated
Aug 25
Waning Crescent
Aug 30
New
Sep 5
First Quarter
Sep 14
Full
Sep 21
Last Quarter

Hourly Weather History & Observations

Time (EDT) Temp. Dew Point Humidity Pressure Visibility Wind Dir Wind Speed Gust Speed Precip Events Conditions
12:15 AM 64.4 °F 64.4 °F 100% 30.14 in 10.0 mi North 4.6 mph - N/A   Light Drizzle
12:35 AM 64.4 °F 64.4 °F 100% 30.15 in 10.0 mi NNE 3.5 mph - N/A   Overcast
12:55 AM 64.4 °F 64.4 °F 100% 30.14 in 10.0 mi North 3.5 mph - N/A   Drizzle
1:15 AM 64.4 °F 64.4 °F 100% 30.13 in 10.0 mi North 4.6 mph - N/A   Light Drizzle
1:35 AM 64.4 °F 64.4 °F 100% 30.13 in 10.0 mi NNE 5.8 mph - N/A   Light Drizzle
1:55 AM 64.4 °F 64.4 °F 100% 30.12 in 10.0 mi North 4.6 mph - N/A   Overcast
2:15 AM 64.4 °F 64.4 °F 100% 30.11 in 10.0 mi Calm Calm - N/A   Overcast
2:35 AM 64.4 °F 64.4 °F 100% 30.11 in 10.0 mi North 4.6 mph - N/A   Overcast
2:55 AM 64.4 °F 64.4 °F 100% 30.11 in 7.0 mi North 5.8 mph - N/A   Drizzle
3:15 AM 64.4 °F 64.4 °F 100% 30.11 in 7.0 mi Calm Calm - 0.01 in   Drizzle
3:35 AM 64.4 °F 64.4 °F 100% 30.10 in 7.0 mi North 3.5 mph - 0.01 in   Drizzle
3:55 AM 64.4 °F 64.4 °F 100% 30.10 in 7.0 mi North 3.5 mph - 0.02 in   Heavy Drizzle
4:15 AM 64.4 °F 64.4 °F 100% 30.09 in 7.0 mi North 3.5 mph - 0.01 in   Heavy Drizzle
4:35 AM 64.4 °F 64.4 °F 100% 30.09 in 7.0 mi North 4.6 mph - 0.02 in   Heavy Drizzle
4:55 AM 64.4 °F 64.4 °F 100% 30.09 in 10.0 mi North 3.5 mph - 0.02 in   Light Drizzle
5:15 AM 64.4 °F 64.4 °F 100% 30.08 in 7.0 mi North 4.6 mph - N/A   Drizzle
5:35 AM 64.4 °F 64.4 °F 100% 30.09 in 10.0 mi North 8.1 mph - N/A   Overcast
5:55 AM 64.4 °F 64.4 °F 100% 30.09 in 10.0 mi NNE 6.9 mph - N/A   Overcast
6:15 AM 66.2 °F 66.2 °F 100% 30.09 in 10.0 mi NNE 8.1 mph - N/A   Drizzle
6:35 AM 66.2 °F 66.2 °F 100% 30.09 in 10.0 mi North 6.9 mph - N/A   Light Drizzle
6:55 AM 66.2 °F 66.2 °F 100% 30.09 in 10.0 mi NNE 9.2 mph - N/A   Light Drizzle
7:15 AM 66.2 °F 66.2 °F 100% 30.10 in 10.0 mi NNE 6.9 mph - N/A   Light Drizzle
7:35 AM 66.2 °F 66.2 °F 100% 30.10 in 10.0 mi NNE 8.1 mph - N/A   Overcast
7:55 AM 66.2 °F 66.2 °F 100% 30.11 in 10.0 mi NE 6.9 mph - N/A   Overcast
8:15 AM 66.2 °F 66.2 °F 100% 30.11 in 10.0 mi NNE 6.9 mph - N/A   Overcast
8:35 AM 68.0 °F 66.2 °F 94% 30.11 in 10.0 mi NNE 8.1 mph - N/A   Overcast
8:55 AM 68.0 °F 66.2 °F 94% 30.11 in 10.0 mi NNE 10.4 mph - N/A   Overcast
9:15 AM 68.0 °F 66.2 °F 94% 30.11 in 10.0 mi NNE 8.1 mph - N/A   Overcast
9:35 AM 68.0 °F 66.2 °F 94% 30.11 in 10.0 mi NNE 9.2 mph 18.4 mph N/A   Overcast
9:55 AM 69.8 °F 66.2 °F 88% 30.12 in 10.0 mi NNE 9.2 mph - N/A   Overcast
10:15 AM 69.8 °F 64.4 °F 83% 30.12 in 10.0 mi NE 10.4 mph 20.7 mph N/A   Overcast
10:55 AM 71.6 °F 62.6 °F 73% 30.12 in 10.0 mi NNE 10.4 mph 17.3 mph N/A   Overcast
11:15 AM 73.4 °F 62.6 °F 69% 30.12 in 10.0 mi NNE 8.1 mph - N/A   Overcast
11:35 AM 73.4 °F 60.8 °F 65% 30.12 in 10.0 mi NE 10.4 mph 18.4 mph N/A   Overcast
11:55 AM 73.4 °F 60.8 °F 65% 30.12 in 10.0 mi NNE 10.4 mph 23.0 mph N/A   Overcast
12:15 PM 73.4 °F 60.8 °F 65% 30.12 in 10.0 mi NE 8.1 mph 18.4 mph N/A   Overcast
12:35 PM 75.2 °F 60.8 °F 61% 30.12 in 10.0 mi North 8.1 mph 16.1 mph N/A   Overcast
12:55 PM 75.2 °F 59.0 °F 57% 30.12 in 10.0 mi NNE 13.8 mph 19.6 mph N/A   Overcast
1:15 PM 73.4 °F 59.0 °F 61% 30.11 in 10.0 mi ENE 6.9 mph - N/A   Overcast
1:35 PM 73.4 °F 60.8 °F 65% 30.11 in 10.0 mi ENE 6.9 mph - N/A   Overcast
1:55 PM 75.2 °F 60.8 °F 61% 30.11 in 10.0 mi NE 6.9 mph 16.1 mph N/A   Overcast
2:15 PM 75.2 °F 60.8 °F 61% 30.11 in 10.0 mi NE 6.9 mph 17.3 mph N/A   Overcast
2:35 PM 77.0 °F 60.8 °F 57% 30.10 in 10.0 mi NNE 10.4 mph 16.1 mph N/A   Overcast
2:55 PM 77.0 °F 59.0 °F 54% 30.10 in 10.0 mi NE 9.2 mph - N/A   Overcast
3:15 PM 77.0 °F 57.2 °F 50% 30.10 in 10.0 mi NE 8.1 mph - N/A   Overcast
3:35 PM 77.0 °F 55.4 °F 47% 30.09 in 10.0 mi NNE 9.2 mph 17.3 mph N/A   Overcast
3:55 PM 77.0 °F 57.2 °F 50% 30.09 in 10.0 mi NNE 10.4 mph - N/A   Overcast
4:15 PM 75.2 °F 57.2 °F 53% 30.09 in 10.0 mi NE 6.9 mph - N/A   Overcast
4:35 PM 75.2 °F 59.0 °F 57% 30.10 in 10.0 mi NE 8.1 mph 16.1 mph N/A   Overcast
4:55 PM 75.2 °F 59.0 °F 57% 30.10 in 10.0 mi NNE 10.4 mph - N/A   Overcast
5:15 PM 75.2 °F 60.8 °F 61% 30.09 in 10.0 mi NE 5.8 mph - N/A   Overcast
5:35 PM 75.2 °F 60.8 °F 61% 30.09 in 10.0 mi NE 4.6 mph - N/A   Overcast
5:55 PM 75.2 °F 60.8 °F 61% 30.09 in 10.0 mi NE 4.6 mph - N/A   Overcast
6:15 PM 73.4 °F 62.6 °F 69% 30.08 in 10.0 mi NE 4.6 mph - N/A   Overcast
6:35 PM 73.4 °F 60.8 °F 65% 30.08 in 10.0 mi NNE 5.8 mph - N/A   Overcast
7:15 PM 71.6 °F 62.6 °F 73% 30.07 in 10.0 mi Calm Calm - N/A   Overcast
7:35 PM 71.6 °F 62.6 °F 73% 30.07 in 10.0 mi Calm Calm - N/A   Overcast
7:55 PM 69.8 °F 66.2 °F 88% 30.08 in 10.0 mi Calm Calm - N/A   Overcast
8:15 PM 69.8 °F 68.0 °F 94% 30.08 in 10.0 mi Calm Calm - N/A   Overcast
8:35 PM 69.8 °F 68.0 °F 94% 30.08 in 10.0 mi Calm Calm - N/A   Overcast
9:15 PM 68.0 °F 66.2 °F 94% 30.09 in 10.0 mi Calm Calm - N/A   Scattered Clouds
9:35 PM 66.2 °F 66.2 °F 100% 30.10 in 10.0 mi Calm Calm - N/A   Mostly Cloudy
9:55 PM 68.0 °F 68.0 °F 100% 30.11 in 10.0 mi Calm Calm - N/A   Overcast
10:15 PM 68.0 °F 68.0 °F 100% 30.11 in 10.0 mi Calm Calm - N/A   Overcast
10:35 PM 68.0 °F 66.2 °F 94% 30.11 in 10.0 mi Calm Calm - N/A   Mostly Cloudy
10:55 PM 68.0 °F 66.2 °F 94% 30.11 in 10.0 mi Calm Calm - N/A   Overcast
11:15 PM 68.0 °F 66.2 °F 94% 30.11 in 10.0 mi Calm Calm - N/A   Overcast
11:35 PM 68.0 °F 66.2 °F 94% 30.11 in 10.0 mi NNE 3.5 mph - N/A   Overcast
11:55 PM 68.0 °F 64.4 °F 88% 30.10 in 10.0 mi NNE 4.6 mph - N/A   Overcast